Location: Eyeline Observatory
(43.2182°N, 78.8632°W)
Time: 08:07:19
(UTC-05:00)

Tiangong 2 - Pass Details

Date: 12 October 2017
Orbit: 386 x 390 km, 42.8° (Epoch: 10 December)

Event Time Altitude Azimuth Distance (km) Brightness Sun altitude
Exits shadow 05:18:37 30° 111° (ESE) 726 2.9 -23.9°
Drops below altitude 10° 05:20:36 10° 88° (E) 1,424 5.0 -23.5°
Sets 05:22:44 0° 81° (E) 2,282 6.5 -23.1°
